Location: Izdebno
(52.6670°N, 16.2170°E)
Time: 04:20:13
(UTC+02:00)

Transit 2A - Pass Details

Date: 01 March 2024
Orbit: 596 x 956 km, 66.7° (Epoch: 21 April)

Event Time Altitude Azimuth Distance (km) Brightness Sun altitude
Rises 21:20:43 0° 278° (W) 2,846 9.8 -33.3°
Reaches altitude 10° 21:23:35 10° 299° (WNW) 1,961 8.9 -33.6°
Maximum altitude 21:26:35 18° 342° (NNW) 1,554 8.1 -34.0°
Enters shadow 21:26:56 17° 348° (NNW) 1,565 8.1 -34.0°
Drops below altitude 10° 21:29:40 10° 25° (NNE) 2,041 - -34.3°
Sets 21:32:44 0° 45° (NE) 3,011 - -34.7°
